Location: Dalton Gardens
(47.7327°N, 116.7697°W)
Time: 13:56:43
(UTC+00:00)

X-37B - Visible Passes

Search period start: 02 December 2022 00:00
Search period end: 12 December 2022 00:00
Orbit: 277 x 277 km, 45.0° (Epoch: 01 November)

Date Brightness Start Highest point End Pass type
(mag) Time Alt. Az. Time Alt. Az. Time Alt. Az.
09 Dec 2.7 01:02:01 10° SSE 01:02:24 10° SSE 01:02:47 10° SE visible
10 Dec 2.3 01:01:20 10° SSW 01:02:54 15° SSE 01:04:15 11° ESE visible
11 Dec 1.8 01:01:27 10° SW 01:03:26 22° SSE 01:04:54 14° ESE visible
